This demonstration page uses our WeatherBlox Daily Observations layout. Learn more.

39.92423, -83.80882

Hourly Observations for April 19, 2017

Temp ( °F °C ) Dew Point ( °F °C ) Humidity (%) Winds ( mph kmh ) Pressure ( in mb ) Visibility ( mi km ) Precip ( " mm )
12:56 am 00:56 Mostly Cloudy 66 18.9 57 13.9 73 73 SSW 10 17 30.12 1020 10 16.0934 0 0
1:56 am 01:56 Mostly Clear 65 18.3 58 14.4 78 78 SSW 9 15 30.11 1020 10 16.0934 0 0
2:56 am 02:56 Mostly Cloudy 64 17.8 59 15 84 84 S 10 17 30.1 1019 10 16.0934 0 0
3:56 am 03:56 Mostly Cloudy 63 17.2 59 15 87 87 SSW 9 15 30.1 1019 10 16.0934 0 0
4:56 am 04:56 Cloudy 64 17.8 60 15.6 87 87 SSW 13 20 30.11 1020 10 16.0934 0 0
5:56 am 05:56 Cloudy 64 17.8 60 15.6 87 87 S 6 9 30.11 1020 10 16.0934 0 0
6:56 am 06:56 Cloudy 63 17.2 59 15 87 87 S 7 11 30.11 1020 10 16.0934 0 0
7:56 am 07:56 Cloudy 63 17.2 60 15.6 90 90 SSW 8 13 30.13 1020 10 16.0934 0 0
8:56 am 08:56 Cloudy 64 17.8 60 15.6 87 87 SSW 12 19 30.14 1021 10 16.0934 0 0
9:07 am 09:07 Cloudy 64 18 61 16 88 88 SSW 9 15 30.15 1021 10 16.0934 0 0
9:56 am 09:56 Cloudy 65 18.3 61 16.1 87 87 SW 12 19 30.13 1020 9 14.48406 0 0
10:32 am 10:32 Cloudy 66 19 63 17 88 88 SW 14 22 30.12 1020 9 14.48406 0 0
10:56 am 10:56 Cloudy 68 20 62 16.7 81 81 SSW 13 20 30.14 1021 10 16.0934 0 0
11:29 am 11:29 Cloudy 68 20 63 17 83 83 SW 13 20 30.12 1020 10 16.0934 0 0
11:56 am 11:56 Cloudy 70 21.1 63 17.2 79 79 SW 13 20 30.14 1021 10 16.0934 0 0
12:56 pm 12:56 Cloudy 74 23.3 62 16.7 67 67 WSW 14 22 30.11 1020 10 16.0934 0 0
1:38 pm 13:38 Cloudy 73 23 61 16 65 65 SW 16 26 30.09 1019 10 16.0934 0 0
1:56 pm 13:56 Mostly Cloudy 75 23.9 61 16.1 62 62 SW 14 22 30.1 1019 10 16.0934 0 0
2:56 pm 14:56 Partly Cloudy 77 25 60 15.6 56 56 SW 14 22 30.09 1019 10 16.0934 0 0
3:56 pm 15:56 Partly Cloudy 76 24.4 60 15.6 58 58 WSW 12 19 30.07 1018 10 16.0934 0 0
4:56 pm 16:56 Sunny 77 25 59 15 54 54 WSW 12 19 30.06 1018 10 16.0934 0 0
5:56 pm 17:56 Mostly Sunny 77 25 58 14.4 52 52 WSW 13 20 30.05 1018 10 16.0934 0 0
6:56 pm 18:56 Sunny 75 23.9 58 14.4 55 55 WSW 8 13 30.07 1018 10 16.0934 0 0
7:56 pm 19:56 Mostly Sunny 74 23.3 59 15 60 60 SSW 6 9 30.08 1019 10 16.0934 0 0
8:56 pm 20:56 Clear 70 21.1 59 15 68 68 S 5 7 30.07 1018 10 16.0934 0 0
9:56 pm 21:56 Clear 69 20.6 59 15 70 70 S 3 6 30.08 1019 10 16.0934 0 0
10:56 pm 22:56 Clear 68 20 59 15 73 73 Calm 30.09 1019 10 16.0934 0 0
11:56 pm 23:56 Clear 66 18.9 58 14.4 75 75 SSW 3 6 30.08 1019 10 16.0934 0 0

Powered by AerisWeather